Voltar ao catálogo

ORBCOMM FM 106

AtivoComunicaçõesLEO
NORAD 40088·PAYLOAD·🇺🇸 United States

Lançado Jul 14, 2014 de Cape Canaveral Space Force Station

Loading…

Próximas Passagens (próximas 24 horas)

TLE

AtualizadoSource: Space-Track

Época: Sep 14, 2026, 05:17 UTC

1 40088U 14040C   26257.22039090  .00000618  00000-0  13150-3 0  9994
2 40088  47.0594 176.2014 0016448  16.0674 344.0736 14.70634417650284

Acompanhe ORBCOMM FM 106 em tempo real com AllMySat

Download on the App Store